EW8829 Weather Reports


Display with metric or nautical units.
time (UTC)temp
F
wind
direction
speed
MPH
gust
MPH
rain 1hr
in
rain 24hr
in
rain mn
in
humidity
%
barometer
mb
20260906102938 54 38 1.0 2.0 0.00 0.00 0.00 99 1014.9
20260906102432 54 75 2.0 3.0 0.00 0.00 0.00 99 1014.9
20260906101927 54 32 1.0 1.0 0.00 0.00 0.00 99 1014.9
20260906101422 54 69 2.0 2.0 0.00 0.00 0.00 99 1014.9
20260906100918 55 94 1.0 2.0 0.00 0.00 0.00 99 1015.0
20260906100417 55 76 1.0 2.0 0.00 0.00 0.00 99 1014.9
20260906095912 55 33 1.0 2.0 0.00 0.00 0.00 99 1014.7
20260906095408 55 48 2.0 2.0 0.00 0.00 0.00 99 1014.9
20260906094908 54 55 0.0 2.0 0.00 0.00 0.00 99 1014.5
20260906094403 54 49 2.0 2.0 0.00 0.00 0.00 99 1014.6
20260906093859 54 49 1.0 2.0 0.00 0.00 0.00 99 1014.4
20260906093355 54 24 2.0 2.0 0.00 0.00 0.00 99 1014.3
20260906092855 54 63 0.0 2.0 0.00 0.00 0.00 99 1014.4
20260906092349 54 32 0.0 2.0 0.00 0.00 0.00 99 1014.2
20260906091845 54 36 2.0 2.0 0.00 0.00 0.00 99 1014.4
20260906091341 54 19 2.0 3.0 0.00 0.00 0.00 99 1014.1
20260906090837 53 53 1.0 2.0 0.00 0.00 0.00 99 1014.2
20260906090336 53 40 2.0 2.0 0.00 0.00 0.00 99 1014.0
20260906085830 53 24 1.0 1.0 0.00 0.00 0.00 99 1013.9
20260906085329 53 304 0.0 1.0 0.00 0.00 0.00 99 1014.1
20260906084819 53 31 1.0 2.0 0.00 0.00 0.00 99 1013.9
20260906084318 54 54 1.0 2.0 0.00 0.00 0.00 99 1014.0
20260906083813 54 44 0.0 0.0 0.00 0.00 0.00 99 1013.8
20260906083308 54 69 0.0 1.0 0.00 0.00 0.00 99 1014.0
20260906082803 54 32 0.0 0.0 0.00 0.00 0.00 99 1013.8
20260906082258 54 50 0.0 1.0 0.00 0.00 0.00 99 1013.6
20260906081754 54 35 1.0 1.0 0.00 0.00 0.00 99 1013.6
20260906081249 54 50 0.0 1.0 0.00 0.00 0.00 99 1013.8
20260906080746 54 40 1.0 2.0 0.02 0.00 0.00 99 1013.5
20260906080242 54 55 2.0 2.0 0.02 0.00 0.00 99 1013.6
20260906075741 54 32 2.0 2.0 0.00 0.00 0.00 99 1013.8
20260906075241 54 103 0.0 2.0 0.00 0.00 0.00 99 1013.7
20260906074737 54 53 0.0 1.0 0.00 0.00 0.00 99 1013.6
20260906074236 54 59 1.0 1.0 0.00 0.00 0.00 99 1013.5
20260906073736 54 43 2.0 2.0 0.00 0.00 0.00 99 1013.8
20260906073231 54 24 1.0 2.0 0.00 0.00 0.00 99 1013.5
20260906072726 54 44 0.0 2.0 0.00 0.00 0.00 99 1013.7
20260906072222 54 93 1.0 2.0 0.00 0.00 0.00 99 1013.6
20260906071718 55 70 2.0 2.0 0.00 0.00 0.00 99 1013.8
20260906071218 55 55 1.0 2.0 0.00 0.00 0.00 99 1013.6
20260906070714 55 62 2.0 2.0 0.00 0.00 0.00 99 1013.7
20260906070210 55 63 0.0 2.0 0.00 0.00 0.00 99 1013.7
20260906065709 55 87 1.0 2.0 0.00 0.00 0.00 99 1013.6
20260906065205 55 80 2.0 2.0 0.00 0.00 0.00 99 1013.7
20260906064700 55 37 2.0 2.0 0.00 0.00 0.00 99 1013.7
20260906064155 55 54 2.0 2.0 0.00 0.00 0.00 99 1013.7
20260906063650 55 71 2.0 2.0 0.00 0.00 0.00 99 1013.7
20260906063146 55 46 0.0 0.0 0.00 0.00 0.00 99 1013.9
20260906062642 55 103 0.0 1.0 0.00 0.00 0.00 99 1013.8
20260906062140 55 58 0.0 2.0 0.00 0.00 0.00 99 1013.9
20260906061637 55 76 2.0 2.0 0.00 0.00 0.00 99 1014.0
20260906061137 55 73 2.0 2.0 0.00 0.00 0.00 99 1013.9
20260906060633 55 69 1.0 2.0 0.00 0.00 0.00 99 1014.0
20260906060130 55 52 0.0 0.0 0.00 0.00 0.00 99 1013.7
20260906055626 55 78 1.0 2.0 0.00 0.00 0.00 99 1013.9
20260906055120 55 80 2.0 2.0 0.00 0.00 0.00 99 1014.0
20260906054616 55 50 1.0 1.0 0.00 0.00 0.00 99 1013.9
20260906054111 55 43 1.0 1.0 0.00 0.00 0.00 99 1014.0
20260906053608 56 50 0.0 1.0 0.00 0.00 0.00 99 1014.0
20260906053103 56 39 1.0 2.0 0.00 0.00 0.00 99 1014.0
20260906052558 56 93 2.0 2.0 0.00 0.00 0.00 99 1013.9
20260906052055 56 34 0.0 1.0 0.00 0.00 0.00 99 1014.0
20260906051550 56 50 1.0 2.0 0.00 0.00 0.00 99 1013.9
20260906051045 56 83 1.0 1.0 0.00 0.00 0.00 99 1014.2
20260906050535 56 93 1.0 2.0 0.00 0.00 0.00 99 1014.0
20260906050031 56 49 1.0 2.0 0.00 0.00 0.00 99 1014.0
20260906045529 56 22 0.0 0.0 0.00 0.00 0.00 99 1013.9
20260906045024 56 38 0.0 0.0 0.00 0.00 0.00 99 1014.0
20260906044519 56 47 0.0 2.0 0.00 0.00 0.00 99 1014.0
20260906044009 56 91 2.0 2.0 0.00 0.00 0.00 99 1014.0
20260906043505 56 62 2.0 2.0 0.00 0.00 0.00 99 1013.8
20260906043001 56 74 2.0 2.0 0.00 0.00 0.00 99 1014.0
20260906042500 56 35 0.0 1.0 0.00 0.00 0.00 99 1013.9
20260906041959 56 44 0.0 1.0 0.00 0.00 0.00 99 1014.0
20260906041456 56 311 0.0 1.0 0.00 0.00 0.00 99 1014.0
20260906040955 57 321 1.0 1.0 0.00 0.00 0.00 99 1014.0
20260906040450 57 44 0.0 1.0 0.00 0.00 0.00 99 1013.9
20260906035945 57 38 0.0 0.0 0.00 0.00 0.00 99 1013.9
20260906035441 57 60 0.0 1.0 0.00 0.00 0.00 99 1013.8
20260906034936 57 42 0.0 1.0 0.00 0.00 0.00 99 1013.8
20260906034431 57 66 1.0 1.0 0.00 0.00 0.00 99 1013.8
20260906033926 57 37 0.0 2.0 0.00 0.00 0.00 99 1014.0
20260906033421 57 93 2.0 2.0 0.00 0.00 0.00 99 1013.6
20260906032916 57 40 1.0 2.0 0.00 0.00 0.00 99 1013.8
20260906032413 57 21 0.0 1.0 0.00 0.00 0.00 99 1013.6
20260906031907 57 347 0.0 1.0 0.00 0.00 0.00 99 1013.6
20260906031403 57 46 1.0 1.0 0.00 0.00 0.00 99 1013.5
20260906030857 57 95 1.0 2.0 0.00 0.00 0.00 99 1013.5
20260906030352 58 72 2.0 2.0 0.00 0.00 0.00 99 1013.4
20260906025846 58 58 2.0 2.0 0.00 0.00 0.00 99 1013.5
20260906025341 58 46 2.0 2.0 0.00 0.00 0.00 99 1013.7
20260906024840 58 74 2.0 2.0 0.00 0.00 0.00 99 1013.7
20260906024339 58 89 0.0 2.0 0.00 0.00 0.00 99 1013.5
20260906023835 58 77 2.0 2.0 0.00 0.00 0.00 99 1013.7
20260906023330 58 49 1.0 1.0 0.00 0.00 0.00 99 1013.5
20260906022826 58 55 0.0 1.0 0.00 0.00 0.00 99 1013.7
20260906022321 58 80 2.0 2.0 0.00 0.00 0.00 99 1013.5
20260906021816 59 82 1.0 2.0 0.00 0.00 0.00 99 1013.6
20260906021316 59 56 1.0 2.0 0.00 0.00 0.00 99 1013.6
20260906020815 59 51 0.0 2.0 0.00 0.00 0.00 99 1013.6
20260906020315 59 68 2.0 2.0 0.00 0.00 0.00 99 1013.5
20260906015810 59 54 0.0 1.0 0.00 0.00 0.00 99 1013.3
20260906015308 59 32 0.0 1.0 0.00 0.00 0.00 99 1013.5
20260906014803 59 50 0.0 0.0 0.00 0.00 0.00 99 1013.1
20260906014259 59 66 0.0 1.0 0.00 0.00 0.00 99 1013.1
20260906013755 60 50 0.0 1.0 0.00 0.00 0.00 99 1013.3
20260906013255 60 77 1.0 2.0 0.00 0.00 0.00 99 1013.0
20260906012750 60 85 1.0 2.0 0.00 0.00 0.00 99 1013.1
20260906012245 60 65 1.0 1.0 0.00 0.00 0.00 99 1012.9
20260906011740 60 52 0.0 1.0 0.00 0.00 0.00 99 1013.2
20260906011240 61 54 1.0 2.0 0.00 0.00 0.00 99 1013.3
20260906010735 61 34 0.0 1.0 0.00 0.00 0.00 99 1013.0
20260906010232 61 96 1.0 2.0 0.00 0.00 0.00 99 1013.0
20260906005727 61 33 1.0 1.0 0.00 0.00 0.00 99 1013.0
20260906005226 61 344 0.0 1.0 0.00 0.00 0.00 99 1013.2
20260906004725 61 30 0.0 1.0 0.00 0.00 0.00 98 1013.0
20260906004220 62 38 0.0 1.0 0.00 0.00 0.00 98 1012.9
20260906003715 62 44 0.0 1.0 0.00 0.00 0.00 98 1012.6
20260906003211 62 76 1.0 1.0 0.00 0.00 0.00 97 1012.6
20260906002711 62 53 1.0 1.0 0.00 0.00 0.00 97 1012.7
20260906002201 62 45 1.0 1.0 0.00 0.00 0.00 97 1012.5
20260906001656 62 29 0.0 2.0 0.00 0.00 0.00 96 1012.7
20260906001155 63 321 1.0 1.0 0.00 0.00 0.00 96 1012.7
20260906000651 63 89 0.0 1.0 0.00 0.00 0.00 95 1012.7
20260906000146 63 37 0.0 0.0 0.00 0.00 0.00 95 1012.6
20260905235645 64 39 0.0 1.0 0.00 0.00 0.00 94 1012.6
20260905235140 64 80 1.0 2.0 0.00 0.00 0.00 94 1012.3
20260905234635 64 316 1.0 2.0 0.00 0.00 0.00 93 1012.6
20260905234132 64 13 0.0 2.0 0.00 0.00 0.00 92 1012.4
20260905233631 65 79 2.0 2.0 0.00 0.00 0.00 91 1012.7
20260905233125 65 50 0.0 1.0 0.00 0.00 0.00 90 1012.6
20260905232621 66 95 1.0 1.0 0.00 0.00 0.00 90 1012.5
20260905232117 66 44 0.0 0.0 0.00 0.00 0.00 88 1012.6
20260905231617 67 13 1.0 2.0 0.00 0.00 0.00 85 1012.5
20260905231113 68 0 2.0 2.0 0.00 0.00 0.00 83 1012.3
20260905230609 68 20 2.0 3.0 0.00 0.00 0.00 82 1012.3
20260905230106 68 22 3.0 3.0 0.00 0.00 0.00 81 1012.3
20260905225600 68 11 2.0 2.0 0.00 0.00 0.00 81 1012.3
20260905225055 69 13 0.0 2.0 0.00 0.00 0.00 82 1012.3
20260905224555 69 12 2.0 2.0 0.00 0.00 0.00 80 1012.5
20260905224055 70 16 1.0 2.0 0.00 0.00 0.00 78 1012.4
20260905223552 70 22 2.0 2.0 0.00 0.00 0.00 79 1012.3
20260905223048 70 21 1.0 2.0 0.00 0.00 0.00 77 1012.4
20260905222548 70 16 2.0 3.0 0.00 0.00 0.00 77 1012.1
20260905222043 71 320 0.0 2.0 0.00 0.00 0.00 79 1012.2
20260905221540 71 30 0.0 2.0 0.00 0.00 0.00 75 1012.2
20260905221036 71 19 1.0 3.0 0.00 0.00 0.00 75 1012.0
20260905220531 72 15 3.0 3.0 0.00 0.00 0.00 72 1012.1
20260905220027 72 26 2.0 3.0 0.00 0.00 0.00 73 1012.2
20260905215526 73 50 0.0 2.0 0.00 0.00 0.00 70 1011.9
20260905215023 73 26 1.0 2.0 0.00 0.00 0.00 70 1011.9
20260905214518 72 10 2.0 2.0 0.00 0.00 0.00 71 1012.0
20260905214013 72 355 2.0 3.0 0.00 0.00 0.00 72 1011.8
20260905213509 72 0 2.0 3.0 0.00 0.00 0.00 73 1011.8
20260905213004 72 11 2.0 3.0 0.00 0.00 0.00 70 1011.8
20260905212459 72 17 2.0 2.0 0.00 0.00 0.00 71 1011.7
20260905211958 72 50 0.0 3.0 0.00 0.00 0.00 72 1011.8
20260905211454 73 355 2.0 2.0 0.00 0.00 0.00 75 1011.8
20260905210950 73 344 2.0 2.0 0.00 0.00 0.00 70 1011.4
20260905210445 73 18 3.0 4.0 0.00 0.00 0.00 75 1011.5
20260905205944 73 47 1.0 3.0 0.00 0.00 0.00 74 1011.5
20260905205439 72 135 3.0 5.0 0.00 0.00 0.00 74 1011.6
20260905204938 72 40 1.0 2.0 0.00 0.00 0.00 75 1011.7
20260905204434 71 15 2.0 2.0 0.00 0.00 0.00 74 1011.6
20260905203933 71 7 2.0 3.0 0.00 0.00 0.00 73 1011.4
20260905203429 72 0 3.0 3.0 0.00 0.00 0.00 71 1011.5
20260905202924 73 353 4.0 4.0 0.00 0.00 0.00 72 1011.4
20260905202419 74 34 1.0 2.0 0.00 0.00 0.00 70 1011.6
20260905201915 74 348 2.0 3.0 0.00 0.00 0.00 68 1011.4
20260905201409 75 7 2.0 4.0 0.00 0.00 0.00 66 1011.6
20260905200904 75 6 4.0 4.0 0.00 0.00 0.00 67 1011.5
20260905200400 74 41 2.0 2.0 0.00 0.00 0.00 73 1011.6
20260905195857 72 36 1.0 3.0 0.00 0.00 0.00 72 1011.6
20260905195353 72 13 1.0 2.0 0.00 0.00 0.00 73 1011.5
20260905194849 72 266 1.0 2.0 0.00 0.00 0.00 73 1011.6
20260905194348 72 20 1.0 2.0 0.00 0.00 0.00 76 1011.7
20260905193847 71 13 1.0 2.0 0.00 0.00 0.00 76 1011.6
20260905193342 72 337 2.0 3.0 0.00 0.00 0.00 73 1011.5
20260905192838 72 29 1.0 4.0 0.00 0.00 0.00 72 1011.6
20260905192334 74 106 1.0 3.0 0.00 0.00 0.00 67 1011.6
20260905191833 75 311 2.0 3.0 0.00 0.00 0.00 68 1011.4
20260905191332 74 130 3.0 7.0 0.00 0.00 0.00 68 1011.6
20260905190831 73 69 1.0 2.0 0.00 0.00 0.00 72 1011.7
20260905190325 72 18 1.0 2.0 0.00 0.00 0.00 74 1011.7
20260905185823 72 48 2.0 2.0 0.00 0.00 0.00 74 1011.6
20260905185319 72 23 3.0 4.0 0.00 0.00 0.00 73 1011.7
20260905184812 72 328 4.0 4.0 0.00 0.00 0.00 76 1011.8
20260905184311 72 312 3.0 3.0 0.00 0.00 0.00 76 1011.7
20260905183810 72 1 1.0 3.0 0.00 0.00 0.00 70 1011.6
20260905183306 72 73 2.0 2.0 0.00 0.00 0.00 71 1011.8
20260905182800 72 52 2.0 3.0 0.00 0.00 0.00 70 1011.6
20260905182300 73 26 2.0 2.0 0.00 0.00 0.00 70 1011.6
20260905181755 72 26 2.0 3.0 0.00 0.00 0.00 71 1011.6
20260905181254 72 50 2.0 4.0 0.00 0.00 0.00 71 1011.7
20260905180748 72 26 2.0 4.0 0.00 0.00 0.00 71 1011.6
20260905180243 72 10 1.0 3.0 0.00 0.00 0.00 72 1011.7
20260905175739 72 9 3.0 3.0 0.00 0.00 0.00 72 1011.6
20260905175233 72 347 2.0 3.0 0.00 0.00 0.00 72 1011.7
20260905174728 72 12 2.0 3.0 0.00 0.00 0.00 71 1011.7
20260905174224 72 31 2.0 2.0 0.00 0.00 0.00 71 1011.8
20260905173720 73 22 2.0 2.0 0.00 0.00 0.00 69 1011.6
20260905173215 73 0 0.0 2.0 0.00 0.00 0.00 68 1011.7
20260905172709 72 351 2.0 3.0 0.00 0.00 0.00 71 1011.6
20260905172203 72 323 2.0 4.0 0.00 0.00 0.00 71 1011.8
20260905171659 74 24 4.0 6.0 0.00 0.00 0.00 68 1011.7
20260905171155 74 35 1.0 3.0 0.00 0.00 0.00 66 1011.8
20260905170652 72 19 2.0 2.0 0.00 0.00 0.00 70 1012.0
20260905170147 71 16 1.0 2.0 0.00 0.00 0.00 72 1011.9
20260905165646 71 10 2.0 4.0 0.00 0.00 0.00 71 1011.8
20260905165142 73 4 2.0 2.0 0.00 0.00 0.00 69 1011.7
20260905164637 73 5 3.0 4.0 0.00 0.00 0.00 71 1012.1
20260905164136 74 17 0.0 3.0 0.00 0.00 0.00 67 1011.9
20260905163632 74 117 3.0 4.0 0.00 0.00 0.00 72 1011.9
20260905163128 73 348 2.0 2.0 0.00 0.00 0.00 71 1011.9
20260905162624 72 49 2.0 3.0 0.00 0.00 0.00 75 1012.0
20260905162123 71 22 2.0 4.0 0.00 0.00 0.00 75 1012.0
20260905161623 71 356 2.0 2.0 0.00 0.00 0.00 79 1011.9
20260905161121 70 12 2.0 2.0 0.00 0.00 0.00 74 1012.0
20260905160621 71 72 2.0 2.0 0.00 0.00 0.00 75 1012.0
20260905160115 71 32 0.0 2.0 0.00 0.00 0.00 72 1012.0
20260905155609 73 127 3.0 4.0 0.00 0.00 0.00 73 1012.0
20260905155108 71 38 2.0 2.0 0.00 0.00 0.00 74 1012.0
20260905154608 69 5 3.0 3.0 0.00 0.00 0.00 76 1012.2
20260905154104 69 350 2.0 3.0 0.00 0.00 0.00 76 1012.1
20260905153600 69 120 2.0 3.0 0.00 0.00 0.00 80 1012.1
20260905153059 70 359 3.0 3.0 0.00 0.00 0.00 76 1012.1
20260905152554 69 16 2.0 2.0 0.00 0.00 0.00 80 1012.3
20260905152049 70 71 0.0 2.0 0.00 0.00 0.00 78 1012.2
20260905151545 70 13 3.0 4.0 0.00 0.00 0.00 75 1012.0
20260905151040 71 93 1.0 3.0 0.00 0.00 0.00 76 1012.0
20260905150535 71 109 3.0 4.0 0.00 0.00 0.00 77 1012.2
20260905150033 69 76 3.0 4.0 0.00 0.00 0.00 78 1012.1
20260905145527 68 91 2.0 3.0 0.00 0.00 0.00 79 1012.4
20260905145026 69 55 0.0 3.0 0.00 0.00 0.00 78 1012.2
20260905144521 70 29 0.0 5.0 0.00 0.00 0.00 76 1012.1
20260905144020 71 3 2.0 4.0 0.00 0.00 0.00 75 1012.1
20260905143520 71 10 2.0 3.0 0.00 0.00 0.00 78 1012.3
20260905143015 69 357 2.0 4.0 0.00 0.00 0.00 79 1012.1
20260905142513 68 352 2.0 3.0 0.00 0.00 0.00 82 1012.3
20260905142009 69 2 2.0 4.0 0.00 0.00 0.00 80 1012.4
20260905141503 70 50 0.0 4.0 0.00 0.00 0.00 78 1012.2
20260905141000 69 359 3.0 4.0 0.00 0.00 0.00 79 1012.0
20260905140455 68 23 3.0 4.0 0.00 0.00 0.00 82 1012.4
20260905135953 68 42 2.0 4.0 0.00 0.00 0.00 83 1012.5
20260905135449 69 47 1.0 4.0 0.00 0.00 0.00 82 1012.1
20260905134945 69 7 2.0 3.0 0.00 0.00 0.00 81 1012.1
20260905134443 69 353 2.0 4.0 0.00 0.00 0.00 84 1012.1
20260905133942 68 4 3.0 4.0 0.00 0.00 0.00 85 1012.0
20260905133438 69 358 2.0 5.0 0.00 0.00 0.00 86 1012.3
20260905132937 68 70 1.0 4.0 0.00 0.00 0.00 88 1012.0
20260905132432 66 4 1.0 4.0 0.00 0.00 0.00 92 1012.1
20260905131928 66 97 2.0 3.0 0.00 0.00 0.00 95 1012.1
20260905131424 64 33 2.0 2.0 0.00 0.00 0.00 99 1011.9
20260905130924 62 206 0.0 1.0 0.00 0.00 0.00 99 1012.3
20260905130423 61 97 2.0 3.0 0.00 0.00 0.00 99 1012.0
20260905125923 60 101 1.0 4.0 0.00 0.00 0.00 99 1012.4
20260905125418 60 89 1.0 2.0 0.00 0.00 0.00 99 1012.1
20260905124913 58 29 2.0 2.0 0.00 0.00 0.00 99 1012.5
20260905124410 58 85 1.0 2.0 0.00 0.00 0.00 99 1012.8
20260905123910 58 89 0.0 2.0 0.00 0.00 0.00 99 1012.6
20260905123407 57 98 2.0 3.0 0.00 0.00 0.00 99 1012.8
20260905122902 57 147 1.0 3.0 0.00 0.00 0.00 99 1013.0
20260905122401 57 27 2.0 3.0 0.00 0.00 0.00 99 1012.9
20260905121856 57 69 2.0 2.0 0.00 0.00 0.00 99 1012.8
20260905121353 57 39 1.0 2.0 0.00 0.00 0.00 99 1012.8
20260905120851 57 99 1.0 2.0 0.00 0.00 0.00 99 1012.8
20260905120346 56 85 3.0 3.0 0.00 0.00 0.00 99 1012.6
20260905115841 56 87 1.0 2.0 0.00 0.00 0.00 99 1012.5
20260905115340 56 81 2.0 3.0 0.00 0.00 0.00 99 1012.4
20260905114835 56 29 0.0 1.0 0.00 0.00 0.00 99 1012.2
20260905114334 56 66 2.0 2.0 0.00 0.00 0.00 99 1012.3
20260905113833 55 107 1.0 2.0 0.00 0.00 0.00 99 1012.1
20260905113329 55 55 0.0 1.0 0.00 0.00 0.00 99 1012.2
20260905112825 55 49 2.0 2.0 0.00 0.00 0.00 99 1012.0
20260905112319 55 27 2.0 2.0 0.00 0.00 0.00 99 1012.1
20260905111815 55 51 1.0 2.0 0.00 0.00 0.00 99 1012.2
20260905111315 55 82 2.0 2.0 0.00 0.00 0.00 99 1012.1
20260905110814 55 356 1.0 2.0 0.00 0.00 0.00 99 1012.0
20260905110308 55 22 2.0 2.0 0.00 0.00 0.00 99 1011.8
20260905105804 55 41 1.0 2.0 0.00 0.00 0.00 99 1012.0
20260905105306 55 68 2.0 3.0 0.00 0.00 0.00 99 1011.9
20260905104757 55 37 2.0 2.0 0.00 0.00 0.00 99 1012.0
20260905104254 55 39 2.0 2.0 0.00 0.00 0.00 99 1011.7
20260905103753 55 70 2.0 2.0 0.00 0.00 0.00 99 1011.7